SCP
0 0 0 0 0 0 0 0 0 0 0 0 0 -0 0 -0 0 0 0 -0 -0 0 -0 0 -0 -0 -0 -0 -0 -0 -0 -0 -0 -0 -0 -0 -0 -0 -0 -0 -0 -0 -0 -0 -0 -0 -0 -0 -0
0 0 0 0 0 0 0 0 0 0 0 -0 -0 -0 -0 -0 -0 0 0 -0 0 0 -0 0 -0 -0 -0 -0 -0 -0 -0 -0 -0 -0 -0 -0 -0 -0 -0 -0 -0 -0 -0 -0 -0 -0 -0 -0 -0
0 0 0 0 0 0 0 0 0 0 0 0 -0 0 -0 -0 -0 0 -0 0 0 -0 -0 0 -0 -0 -0 -0 -0 -0 -0 -0 -0 -0 -0 -0 -0 -0 -0 -0 -0 -0 -0 -0 -0 -0 -0 -0 -0
0 0 0 0 0 0 0 0 0 0 0 0 0 -0 -0 0 0 0 0 0 0 -0 -0 -0 0 -0 -0 0 -0 -0 -0 -0 -0 -0 -0 -0 -0 -0 -0 -0 -0 -0 -0 -0 -0 -0 -0 -0 -0
0 0 0 0 0 0 0 -0 0 0 0 0 0 -0 -0 -0 0 -0 0 0 0 -0 -0 -0 -0 -0 -0 0 0 -0 -0 -0 -0 -0 -0 -0 -0 -0 -0 -0 -0 -0 -0 -0 -0 -0 -0 -0 -0
0 0 0 0 0 0 0 -0 0 0 0 0 0 0 0 0 0 0 0 0 -0 -0 -0 0 -0 -0 -0 -0 0 -0 -0 -0 0 -0 -0 -0 -0 -0 -0 -0 -0 -0 -0 -0 -0 -0 -0 -0 -0
0 0 0 0 0 0 0 0 0 0 0 0 0 0 0 0 0 0 0 0 0 -0 -0 0 0 -0 -0 0 0 0 0 -0 0 -0 -0 -0 -0 -0 -0 -0 -0 -0 -0 -0 -0 -0 -0 -0 -0
0 0 0 0 0 0 0 0 0 0 0 0 0 0 0 -0 0 0 0 0 0 0 0 0 0 0 0 0 0 0 0 0 -0 -0 -0 -0 -0 -0 -0 -0 -0 -0 -0 -0 -0 -0 -0 -0 -0
0 0 0 0 0 0 0 0 0 0 0 0 0 -0 -0 0 0 0 0 0 0 0 0 0 0 0 0 0 0 0 0 -0 -0 -0 -0 -0 -0 -0 -0 -0 -0 -0 -0 -0 -0 -0 0 -0 -0
0 0 0 0 0 0 0 0 0 0 0 0 0 0 0 0 0 0 0 0 0 0 0 0 0 0 0 0 0 0 0 0 0 0 0 0 0 -0 -0 -0 -0 -0 -0 -0 -0 0 0 0 0
0 0 0 0 0 0 0 0 0 0 0 0 0 0 0 0 0 0 0 0 0 0 0 0 0 0 0 0 0 0 0 0 0 0 0 0 0 0 0 0 0 0 0 0 0 0 0 0 0
0 0 0 0 0 0 0 0 0 0 0 0 0 -0 0 0 0 0 0 0 0 0 -0 -0 0 0 0 0 0 0 0 0 0 -0 -0 -0 -0 -0 0 0 0 0 0 0 0 0 0 0 0
0 0 0 0 0 0 0 0 0 0 0 0 0 0 0 0 0 0 0 0 0 -0 -0 -0 -0 -0 -0 -0 -0 -0 -0 -0 -0 -0 -0 -0 -0 -0 -0 0 0 0 0 0 0 0 0 0 0
0 0 0 0 0 0 0 0 0 0 0 0 0 0 0 0 0 0 0 0 0 -0 -0 -0 -0 -0 -0 -0 -0 -0 -0 -0 -0 -0 -0 -0 0 0 0 0 0 0 0 0 0 0 0 0 0
0 0 0 0 0 0 0 0 0 0 0 0 0 0 0 -0 0 0 0 0 0 0 0 -0 -0 -0 -0 -0 -0 -0 0 0 0 0 0 -0 0 0 0 0 0 0 0 0 0 0 0 0 0
0 0 0 0 0 0 0 0 0 0 0 0 0 0 0 0 0 0 0 0 0 0 0 0 0 0 0 0 0 0 0 0 0 0 0 0 0 0 0 0 0 0 0 0 0 0 0 0 0
0 0 0 0 0 0 0 0 0 0 0 0 0 0 0 0 0 -0 0 0 0 0 0 0 0 0 0 0 0 0 0 0 0 0 0 0 0 0 0 0 0 0 0 0 0 0 0 0 0
0 0 0 0 0 0 0 0 0 0 0 0 0 0 0 0 0 0 0 0 0 0 0 0 0 0 0 0 0 0 0 0 0 0 0 0 0 0 0 0 0 0 0 0 0 0 0 0 0
0 0 0 0 0 0 0 0 0 0 0 0 0 0 0 0 0 0 0 0 0 0 0 0 0 0 0 0 0 0 0 0 0 0 0 0 0 0 0 0 0 0 0 0 0 0 0 0 0
0 0 0 0 0 0 0 0 0 0 0 0 0 0 0 0 0 0 0 0 0 0 0 0 0 0 0 0 0 0 0 0 0 0 0 0 0 0 0 0 0 0 0 0 0 0 0 0 0
0 0 0 0 0 0 0 0 0 0 0 0 0 0 0 0 0 0 0 0 0 0 0 0 0 0 0 0 0 0 0 0 0 0 0 0 0 0 0 0 0 0 0 0 0 0 0 0 0
0 0 0 0 0 0 0 0 0 0 0 0 0 0 0 0 0 0 0 0 0 0 0 0 0 0 0 0 0 0 0 0 0 0 0 0 0 0 0 0 0 0 0 0 0 0 0 0 0
0 0 0 0 0 0 0 0 0 0 0 0 0 0 0 0 0 0 0 0 0 0 0 0 0 0 0 0 0 0 0 0 0 0 0 0 0 0 0 0 0 0 0 0 0 0 0 0 0
0 0 0 0 0 0 0 0 -0 0 0 0 0 0 0 0 0 0 0 0 0 0 0 0 0 0 0 0 0 0 0 0 0 0 0 0 0 0 0 0 0 0 0 0 0 0 0 0 0
0 0 0 0 0 0 0 0 0 0 0 0 0 0 0 0 0 0 0 0 0 0 0 0 0 0 0 0 0 0 0 0 0 0 0 0 0 0 0 0 0 0 0 0 0 0 0 0 0
0 0 0 0 0 0 0 0 0 0 0 0 0 0 0 0 0 0 0 0 0 0 0 0 0 0 0 0 0 0 0 0 0 0 0 0 0 0 0 0 0 0 0 0 0 0 0 0 0
0 0 0 0 0 0 0 0 0 0 0 0 0 0 0 0 0 0 0 0 0 0 0 0 0 0 0 0 0 0 0 0 0 0 0 0 0 0 0 0 0 0 0 0 0 0 0 0 0
0 0 0 0 0 0 0 0 0 0 0 0 0 0 0 0 0 0 0 0 0 0 0 0 0 0 0 0 0 0 0 0 0 0 0 0 0 0 0 0 0 0 0 0 0 0 0 0 0
0 0 0 0 0 0 0 0 0 0 0 0 0 0 0 0 0 0 0 0 0 0 0 0 0 0 0 0 0 0 0 0 0 0 0 0 0 0 0 0 0 0 0 0 0 0 0 0 0
0 0 0 0 0 0 0 0 0 0 0 0 0 0 0 0 0 0 0 0 0 0 0 0 0 0 0 0 0 0 0 0 0 0 0 0 0 0 0 0 0 0 0 0 0 0 0 0 0
Wind_Speed_500mb
5 14 9 5 8 9 6 3 5 8 8 11 25 27 18 11 3 4 32 31 37 36 33 27 22 22 25 22 25 24 21 23 26 25 29 29 29 28 26 29 31 28 27 29 27 29 27 26 27
8 10 4 8 8 5 8 4 7 6 27 41 28 20 18 5 8 26 42 24 36 37 32 27 25 23 25 24 25 24 24 25 28 29 33 28 30 31 30 31 32 29 31 32 28 27 29 29 30
10 10 5 8 6 5 7 5 11 12 20 13 13 24 9 11 24 44 24 32 39 34 31 26 26 26 28 27 25 23 24 24 28 33 33 24 28 30 30 31 32 32 30 29 30 33 34 30 28
6 2 6 8 5 8 13 16 17 20 20 16 33 17 14 12 32 26 31 37 41 37 30 26 25 26 30 29 26 21 22 25 27 28 26 24 25 25 24 25 28 27 27 26 28 29 28 23 23
4 2 7 4 7 8 5 21 22 9 15 21 13 9 9 34 17 28 35 36 40 38 31 29 27 28 30 28 24 20 21 23 25 24 22 21 21 23 22 22 24 25 25 23 22 21 23 26 20
2 3 7 3 7 5 4 29 27 12 16 25 24 16 12 24 30 35 38 37 33 36 33 31 28 27 30 28 24 19 19 21 22 21 20 18 18 20 20 19 21 25 23 22 21 22 26 30 21
4 6 9 8 6 3 9 25 23 23 21 11 37 10 20 35 43 42 35 35 31 26 29 29 28 27 28 27 25 20 18 19 20 20 19 18 17 16 18 19 20 21 20 21 22 23 26 28 18
11 5 6 5 8 7 6 8 21 41 10 27 26 14 16 52 57 45 38 35 29 28 28 30 29 27 26 27 24 21 19 18 18 19 17 16 15 14 15 17 15 14 17 19 21 23 21 18 14
25 4 6 11 14 10 16 8 11 16 24 15 13 21 18 68 60 51 47 39 37 34 34 29 28 29 27 25 24 21 18 16 15 15 15 14 12 11 10 10 14 14 12 14 15 15 15 13 10
9 5 15 12 13 9 10 13 22 13 22 11 19 19 44 76 67 63 59 51 47 41 42 34 31 29 28 26 23 21 18 16 13 12 12 11 11 9 7 6 9 9 7 9 10 9 8 6 6
10 9 8 6 13 21 33 19 11 31 4 23 46 47 63 74 69 64 59 51 50 42 41 40 35 31 28 26 24 21 18 15 12 9 8 7 8 6 5 4 3 4 5 4 5 4 4 2 1
7 22 18 10 8 13 22 24 14 29 13 28 36 44 58 67 76 70 63 54 47 45 41 39 37 35 32 29 26 22 20 18 15 11 8 5 3 3 2 3 1 1 2 2 0 1 3 3 1
4 17 20 23 15 24 17 17 18 26 17 29 45 53 53 57 67 68 63 53 47 47 40 39 36 34 34 34 29 27 24 20 18 16 12 9 6 3 2 1 2 2 1 1 2 2 4 4 3
5 17 32 13 20 13 23 11 20 25 23 44 57 57 52 52 58 66 67 65 58 51 46 41 38 34 32 32 31 29 28 25 25 22 17 15 13 11 10 8 7 7 6 5 5 4 5 5 5
39 22 17 13 14 12 26 2 13 33 34 55 62 56 52 49 52 61 66 69 64 58 49 47 42 40 42 39 34 32 32 29 30 27 24 22 21 20 17 15 13 12 11 10 10 7 6 6 6
28 5 17 7 13 10 12 19 19 28 48 57 62 57 52 49 54 50 53 59 61 58 58 47 45 45 48 51 42 38 36 34 32 29 29 29 27 26 25 22 18 17 17 17 16 15 14 13 13
17 18 15 10 21 3 5 10 14 38 52 53 60 59 54 49 50 46 45 49 50 53 58 58 51 45 45 55 52 47 45 43 40 38 35 30 30 31 28 27 24 25 24 23 24 24 24 25 26
10 17 9 16 12 5 7 11 5 40 56 58 56 54 52 55 55 49 48 52 51 51 54 56 54 48 42 41 47 49 50 48 44 44 41 37 34 30 29 29 29 29 29 28 29 31 32 34 37
9 13 11 10 10 13 16 14 16 23 34 40 47 48 52 58 51 50 52 59 59 58 52 56 56 48 44 46 47 46 56 54 54 51 46 45 42 39 35 31 32 33 31 30 32 35 38 39 41
6 6 12 2 2 6 9 23 16 15 21 52 55 51 51 48 45 57 54 57 60 64 60 57 53 47 44 45 41 39 42 51 51 50 49 48 46 45 43 39 35 34 33 36 37 39 41 45 46
13 15 9 8 6 2 6 12 11 17 44 43 49 49 49 51 48 48 54 55 57 60 64 58 53 49 45 40 38 38 33 38 43 49 47 45 44 43 43 43 44 43 44 44 41 45 43 47 49
30 20 15 13 13 10 10 11 13 15 20 22 62 61 58 51 48 49 50 58 59 61 62 60 60 58 55 52 49 46 44 43 40 37 37 38 41 42 44 45 44 46 45 45 47 45 45 51 51
17 14 18 13 12 11 5 3 14 5 14 21 48 69 56 49 49 58 58 59 62 59 59 60 60 59 60 61 59 53 48 37 36 30 31 33 34 35 37 37 40 40 41 43 44 45 43 51 50
12 14 13 9 4 6 12 14 10 12 15 9 12 56 53 47 44 54 55 53 56 56 55 58 61 64 63 62 60 56 50 43 37 33 30 27 28 27 27 26 25 27 26 26 30 32 35 38 39
11 18 4 2 2 12 3 7 18 9 14 12 25 56 52 51 50 48 50 49 48 49 51 54 57 63 66 65 64 55 44 43 37 34 28 25 27 29 28 26 24 25 25 25 28 30 28 34 35
16 24 11 14 9 6 4 13 12 7 17 22 32 54 50 48 44 41 40 39 39 38 37 37 38 42 46 54 62 62 54 44 39 32 30 30 27 27 28 28 26 23 27 22 24 30 31 35 38
13 12 10 14 6 7 9 12 19 3 2 17 46 51 52 47 43 40 37 34 34 32 29 28 28 31 34 37 41 45 42 42 43 37 28 26 24 21 21 21 22 22 23 26 25 25 29 33 38
14 18 6 5 10 8 8 9 11 14 20 17 23 51 52 46 43 40 38 38 36 33 32 30 29 30 32 33 34 35 36 39 43 46 35 26 21 18 15 14 9 9 12 13 15 18 20 22 25
6 7 4 9 9 12 5 12 17 26 19 29 30 57 61 55 48 45 43 41 38 36 34 34 32 32 34 33 33 33 35 37 38 40 21 20 18 14 11 8 5 3 5 9 12 16 20 23 26
3 11 11 12 14 3 6 11 5 8 17 42 48 60 58 52 48 46 43 41 39 38 38 38 38 37 38 38 38 38 38 37 37 34 28 24 20 17 13 8 4 4 6 9 13 18 23 27 32
Wind_Direction_500mb
319 320 316 3 45 62 299 280 182 128 59 83 85 91 107 69 66 184 139 155 169 157 151 145 140 135 129 117 107 99 95 99 102 102 95 101 107 113 113 110 104 99 104 100 111 107 101 96 90
316 309 348 69 86 55 278 292 137 140 127 105 80 91 58 64 88 141 148 168 168 156 149 147 147 142 137 119 106 92 88 96 101 102 104 96 93 100 102 103 99 100 100 105 107 106 106 100 95
311 327 10 89 115 183 196 180 161 114 119 106 103 73 74 113 135 144 161 157 165 158 151 148 149 149 137 124 117 99 91 97 100 104 105 100 95 97 102 101 103 99 100 102 104 107 113 113 99
286 329 54 87 237 256 167 183 157 126 95 88 111 75 96 124 149 163 161 156 161 157 155 149 148 144 142 137 128 109 100 104 105 112 110 98 92 93 100 101 103 104 104 105 111 116 120 114 104
258 56 57 68 266 278 109 173 148 120 119 119 122 120 96 156 169 165 163 160 159 152 151 149 149 149 146 140 133 121 110 104 104 111 114 105 95 97 98 101 101 101 102 102 110 114 114 118 112
162 88 73 230 272 342 140 167 138 126 128 122 107 108 141 173 181 171 162 161 156 150 151 151 151 153 152 146 146 132 117 102 100 106 107 101 89 85 93 94 93 93 91 91 96 100 110 118 113
83 92 194 156 257 73 214 170 150 145 149 136 135 93 148 165 177 167 169 169 160 158 155 157 158 157 157 156 150 143 127 113 107 104 103 101 96 90 96 97 97 89 93 96 100 105 115 125 118
332 95 192 152 191 254 210 167 160 150 155 130 175 154 177 170 170 170 174 170 171 170 171 166 164 163 162 165 157 150 140 124 111 105 104 106 111 103 97 90 80 92 99 95 103 107 114 128 134
315 38 207 208 168 241 185 142 152 160 143 133 153 169 174 165 172 176 177 181 181 179 180 178 173 168 169 170 166 160 150 139 126 114 113 107 104 101 99 82 71 71 96 100 103 110 122 131 149
242 209 222 204 181 203 197 171 148 145 131 102 143 153 157 167 175 181 185 188 185 182 182 186 184 179 176 177 173 167 162 155 147 130 115 108 108 109 107 94 72 77 102 115 118 119 112 118 144
211 229 242 238 245 251 191 180 168 152 221 185 157 153 161 171 180 188 194 198 192 187 188 188 192 191 189 185 182 178 176 175 174 163 144 135 124 125 105 111 95 82 94 105 116 104 68 75 134
237 244 255 292 252 171 173 180 178 172 198 207 194 179 168 178 184 193 200 201 197 196 196 195 195 199 197 197 195 195 195 193 196 197 193 181 153 118 94 72 72 98 70 69 73 16 337 324 247
195 288 261 261 246 203 183 213 184 199 200 185 180 176 179 185 190 196 203 208 205 207 203 202 202 204 208 204 200 204 207 209 211 219 220 222 227 237 245 269 244 242 259 283 269 283 293 289 330
273 312 274 268 235 192 167 201 174 194 188 183 181 185 189 193 194 196 201 208 213 215 214 211 213 217 221 213 211 213 216 218 220 225 230 234 238 238 242 248 249 253 247 247 254 277 273 252 254
237 292 301 247 238 220 163 189 223 181 179 178 186 190 195 199 198 201 205 209 215 219 220 220 222 229 230 229 222 217 219 229 222 223 227 234 239 244 245 250 256 258 258 258 258 274 266 261 261
216 208 248 268 195 243 179 229 232 189 183 186 191 192 199 200 205 206 210 212 217 222 222 223 223 227 236 234 221 217 215 222 229 237 232 233 238 243 249 254 258 260 261 259 258 254 257 257 263
189 209 201 258 202 202 185 231 229 202 195 189 192 195 202 205 211 213 212 216 216 220 225 224 226 229 232 232 236 224 221 225 229 235 234 241 240 240 243 249 252 254 255 257 255 254 261 263 267
222 162 167 187 216 173 231 258 257 197 197 201 198 204 207 214 218 219 217 219 220 224 227 230 229 230 229 233 236 229 223 226 233 235 238 239 241 246 239 243 246 250 255 259 259 261 266 272 275
180 165 176 201 203 145 210 235 234 192 206 212 211 211 216 222 222 220 220 221 220 223 224 227 229 230 228 226 231 239 227 228 232 234 238 242 243 245 250 257 258 255 263 267 267 265 268 275 279
262 189 196 286 168 146 179 242 240 211 220 216 217 220 221 224 220 215 216 219 217 220 222 224 231 235 234 234 240 247 251 236 235 238 240 241 246 250 253 257 263 264 270 272 272 274 273 273 276
204 216 192 193 137 45 159 275 232 236 235 235 227 228 229 223 216 215 213 214 214 214 220 223 232 233 239 241 241 242 240 243 239 239 241 242 245 252 257 260 263 266 274 273 271 278 277 278 281
222 188 191 158 141 203 172 262 254 230 229 212 229 228 232 227 223 216 211 208 208 212 215 218 225 232 235 238 240 243 248 235 238 243 248 248 249 251 257 263 264 269 270 272 276 269 272 280 276
227 156 167 159 168 129 221 170 262 220 239 230 223 224 221 226 221 212 209 209 208 212 216 221 222 224 228 232 235 239 238 242 244 257 260 256 254 252 255 259 262 266 269 268 270 273 275 273 285
152 100 63 65 100 220 196 179 252 200 207 219 198 210 203 190 188 192 193 197 204 211 214 220 226 229 229 233 236 233 233 232 243 251 261 260 246 248 248 249 252 257 267 274 270 269 273 279 286
200 142 132 212 220 217 186 170 237 245 242 218 185 182 180 185 184 187 194 201 212 219 224 230 228 230 229 230 235 236 226 218 233 239 237 244 238 237 235 239 247 255 256 262 264 274 274 274 279
195 176 150 173 182 222 112 231 245 255 264 262 203 176 173 182 187 195 201 206 212 214 214 215 217 220 220 222 226 229 229 218 213 225 224 223 229 238 243 252 253 250 251 249 271 274 273 276 284
187 191 160 100 26 71 206 278 300 197 20 153 160 168 174 182 181 187 186 187 191 190 191 191 190 195 196 202 208 213 217 207 206 206 208 222 225 223 227 230 239 247 263 269 268 275 278 281 281
183 155 107 2 128 226 263 270 230 215 206 178 172 174 177 179 178 180 182 182 182 181 179 179 178 181 178 187 194 198 201 203 209 211 221 216 199 200 199 207 210 236 252 268 279 286 287 289 294
147 182 136 122 154 176 177 250 214 212 192 188 179 182 181 182 182 180 180 181 181 180 175 174 171 174 172 177 183 186 185 187 192 207 194 153 156 158 162 175 191 238 291 303 307 310 313 313 311
306 218 162 190 218 221 168 265 159 207 189 178 185 190 189 187 185 185 185 183 180 178 176 173 169 168 163 160 159 156 152 153 158 158 153 153 157 153 154 161 186 252 288 302 309 312 316 318 321
Wind_Speed_850mb
5 14 9 5 8 9 6 3 5 8 8 11 25 27 18 11 3 4 32 31 37 36 33 27 22 22 25 22 25 24 21 23 26 25 29 29 29 28 26 29 31 28 27 29 27 29 27 26 27
8 10 4 8 8 5 8 4 7 6 27 41 28 20 18 5 8 26 42 24 36 37 32 27 25 23 25 24 25 24 24 25 28 29 33 28 30 31 30 31 32 29 31 32 28 27 29 29 30
10 10 5 8 6 5 7 5 11 12 20 13 13 24 9 11 24 44 24 32 39 34 31 26 26 26 28 27 25 23 24 24 28 33 33 24 28 30 30 31 32 32 30 29 30 33 34 30 28
6 2 6 8 5 8 13 16 17 20 20 16 33 17 14 12 32 26 31 37 41 37 30 26 25 26 30 29 26 21 22 25 27 28 26 24 25 25 24 25 28 27 27 26 28 29 28 23 23
4 2 7 4 7 8 5 21 22 9 15 21 13 9 9 34 17 28 35 36 40 38 31 29 27 28 30 28 24 20 21 23 25 24 22 21 21 23 22 22 24 25 25 23 22 21 23 26 20
2 3 7 3 7 5 4 29 27 12 16 25 24 16 12 24 30 35 38 37 33 36 33 31 28 27 30 28 24 19 19 21 22 21 20 18 18 20 20 19 21 25 23 22 21 22 26 30 21
4 6 9 8 6 3 9 25 23 23 21 11 37 10 20 35 43 42 35 35 31 26 29 29 28 27 28 27 25 20 18 19 20 20 19 18 17 16 18 19 20 21 20 21 22 23 26 28 18
11 5 6 5 8 7 6 8 21 41 10 27 26 14 16 52 57 45 38 35 29 28 28 30 29 27 26 27 24 21 19 18 18 19 17 16 15 14 15 17 15 14 17 19 21 23 21 18 14
25 4 6 11 14 10 16 8 11 16 24 15 13 21 18 68 60 51 47 39 37 34 34 29 28 29 27 25 24 21 18 16 15 15 15 14 12 11 10 10 14 14 12 14 15 15 15 13 10
9 5 15 12 13 9 10 13 22 13 22 11 19 19 44 76 67 63 59 51 47 41 42 34 31 29 28 26 23 21 18 16 13 12 12 11 11 9 7 6 9 9 7 9 10 9 8 6 6
10 9 8 6 13 21 33 19 11 31 4 23 46 47 63 74 69 64 59 51 50 42 41 40 35 31 28 26 24 21 18 15 12 9 8 7 8 6 5 4 3 4 5 4 5 4 4 2 1
7 22 18 10 8 13 22 24 14 29 13 28 36 44 58 67 76 70 63 54 47 45 41 39 37 35 32 29 26 22 20 18 15 11 8 5 3 3 2 3 1 1 2 2 0 1 3 3 1
4 17 20 23 15 24 17 17 18 26 17 29 45 53 53 57 67 68 63 53 47 47 40 39 36 34 34 34 29 27 24 20 18 16 12 9 6 3 2 1 2 2 1 1 2 2 4 4 3
5 17 32 13 20 13 23 11 20 25 23 44 57 57 52 52 58 66 67 65 58 51 46 41 38 34 32 32 31 29 28 25 25 22 17 15 13 11 10 8 7 7 6 5 5 4 5 5 5
39 22 17 13 14 12 26 2 13 33 34 55 62 56 52 49 52 61 66 69 64 58 49 47 42 40 42 39 34 32 32 29 30 27 24 22 21 20 17 15 13 12 11 10 10 7 6 6 6
28 5 17 7 13 10 12 19 19 28 48 57 62 57 52 49 54 50 53 59 61 58 58 47 45 45 48 51 42 38 36 34 32 29 29 29 27 26 25 22 18 17 17 17 16 15 14 13 13
17 18 15 10 21 3 5 10 14 38 52 53 60 59 54 49 50 46 45 49 50 53 58 58 51 45 45 55 52 47 45 43 40 38 35 30 30 31 28 27 24 25 24 23 24 24 24 25 26
10 17 9 16 12 5 7 11 5 40 56 58 56 54 52 55 55 49 48 52 51 51 54 56 54 48 42 41 47 49 50 48 44 44 41 37 34 30 29 29 29 29 29 28 29 31 32 34 37
9 13 11 10 10 13 16 14 16 23 34 40 47 48 52 58 51 50 52 59 59 58 52 56 56 48 44 46 47 46 56 54 54 51 46 45 42 39 35 31 32 33 31 30 32 35 38 39 41
6 6 12 2 2 6 9 23 16 15 21 52 55 51 51 48 45 57 54 57 60 64 60 57 53 47 44 45 41 39 42 51 51 50 49 48 46 45 43 39 35 34 33 36 37 39 41 45 46
13 15 9 8 6 2 6 12 11 17 44 43 49 49 49 51 48 48 54 55 57 60 64 58 53 49 45 40 38 38 33 38 43 49 47 45 44 43 43 43 44 43 44 44 41 45 43 47 49
30 20 15 13 13 10 10 11 13 15 20 22 62 61 58 51 48 49 50 58 59 61 62 60 60 58 55 52 49 46 44 43 40 37 37 38 41 42 44 45 44 46 45 45 47 45 45 51 51
17 14 18 13 12 11 5 3 14 5 14 21 48 69 56 49 49 58 58 59 62 59 59 60 60 59 60 61 59 53 48 37 36 30 31 33 34 35 37 37 40 40 41 43 44 45 43 51 50
12 14 13 9 4 6 12 14 10 12 15 9 12 56 53 47 44 54 55 53 56 56 55 58 61 64 63 62 60 56 50 43 37 33 30 27 28 27 27 26 25 27 26 26 30 32 35 38 39
11 18 4 2 2 12 3 7 18 9 14 12 25 56 52 51 50 48 50 49 48 49 51 54 57 63 66 65 64 55 44 43 37 34 28 25 27 29 28 26 24 25 25 25 28 30 28 34 35
16 24 11 14 9 6 4 13 12 7 17 22 32 54 50 48 44 41 40 39 39 38 37 37 38 42 46 54 62 62 54 44 39 32 30 30 27 27 28 28 26 23 27 22 24 30 31 35 38
13 12 10 14 6 7 9 12 19 3 2 17 46 51 52 47 43 40 37 34 34 32 29 28 28 31 34 37 41 45 42 42 43 37 28 26 24 21 21 21 22 22 23 26 25 25 29 33 38
14 18 6 5 10 8 8 9 11 14 20 17 23 51 52 46 43 40 38 38 36 33 32 30 29 30 32 33 34 35 36 39 43 46 35 26 21 18 15 14 9 9 12 13 15 18 20 22 25
6 7 4 9 9 12 5 12 17 26 19 29 30 57 61 55 48 45 43 41 38 36 34 34 32 32 34 33 33 33 35 37 38 40 21 20 18 14 11 8 5 3 5 9 12 16 20 23 26
3 11 11 12 14 3 6 11 5 8 17 42 48 60 58 52 48 46 43 41 39 38 38 38 38 37 38 38 38 38 38 37 37 34 28 24 20 17 13 8 4 4 6 9 13 18 23 27 32
Wind_Direction_850mb
319 320 316 3 45 62 299 280 182 128 59 83 85 91 107 69 66 184 139 155 169 157 151 145 140 135 129 117 107 99 95 99 102 102 95 101 107 113 113 110 104 99 104 100 111 107 101 96 90
316 309 348 69 86 55 278 292 137 140 127 105 80 91 58 64 88 141 148 168 168 156 149 147 147 142 137 119 106 92 88 96 101 102 104 96 93 100 102 103 99 100 100 105 107 106 106 100 95
311 327 10 89 115 183 196 180 161 114 119 106 103 73 74 113 135 144 161 157 165 158 151 148 149 149 137 124 117 99 91 97 100 104 105 100 95 97 102 101 103 99 100 102 104 107 113 113 99
286 329 54 87 237 256 167 183 157 126 95 88 111 75 96 124 149 163 161 156 161 157 155 149 148 144 142 137 128 109 100 104 105 112 110 98 92 93 100 101 103 104 104 105 111 116 120 114 104
258 56 57 68 266 278 109 173 148 120 119 119 122 120 96 156 169 165 163 160 159 152 151 149 149 149 146 140 133 121 110 104 104 111 114 105 95 97 98 101 101 101 102 102 110 114 114 118 112
162 88 73 230 272 342 140 167 138 126 128 122 107 108 141 173 181 171 162 161 156 150 151 151 151 153 152 146 146 132 117 102 100 106 107 101 89 85 93 94 93 93 91 91 96 100 110 118 113
83 92 194 156 257 73 214 170 150 145 149 136 135 93 148 165 177 167 169 169 160 158 155 157 158 157 157 156 150 143 127 113 107 104 103 101 96 90 96 97 97 89 93 96 100 105 115 125 118
332 95 192 152 191 254 210 167 160 150 155 130 175 154 177 170 170 170 174 170 171 170 171 166 164 163 162 165 157 150 140 124 111 105 104 106 111 103 97 90 80 92 99 95 103 107 114 128 134
315 38 207 208 168 241 185 142 152 160 143 133 153 169 174 165 172 176 177 181 181 179 180 178 173 168 169 170 166 160 150 139 126 114 113 107 104 101 99 82 71 71 96 100 103 110 122 131 149
242 209 222 204 181 203 197 171 148 145 131 102 143 153 157 167 175 181 185 188 185 182 182 186 184 179 176 177 173 167 162 155 147 130 115 108 108 109 107 94 72 77 102 115 118 119 112 118 144
211 229 242 238 245 251 191 180 168 152 221 185 157 153 161 171 180 188 194 198 192 187 188 188 192 191 189 185 182 178 176 175 174 163 144 135 124 125 105 111 95 82 94 105 116 104 68 75 134
237 244 255 292 252 171 173 180 178 172 198 207 194 179 168 178 184 193 200 201 197 196 196 195 195 199 197 197 195 195 195 193 196 197 193 181 153 118 94 72 72 98 70 69 73 16 337 324 247
195 288 261 261 246 203 183 213 184 199 200 185 180 176 179 185 190 196 203 208 205 207 203 202 202 204 208 204 200 204 207 209 211 219 220 222 227 237 245 269 244 242 259 283 269 283 293 289 330
273 312 274 268 235 192 167 201 174 194 188 183 181 185 189 193 194 196 201 208 213 215 214 211 213 217 221 213 211 213 216 218 220 225 230 234 238 238 242 248 249 253 247 247 254 277 273 252 254
237 292 301 247 238 220 163 189 223 181 179 178 186 190 195 199 198 201 205 209 215 219 220 220 222 229 230 229 222 217 219 229 222 223 227 234 239 244 245 250 256 258 258 258 258 274 266 261 261
216 208 248 268 195 243 179 229 232 189 183 186 191 192 199 200 205 206 210 212 217 222 222 223 223 227 236 234 221 217 215 222 229 237 232 233 238 243 249 254 258 260 261 259 258 254 257 257 263
189 209 201 258 202 202 185 231 229 202 195 189 192 195 202 205 211 213 212 216 216 220 225 224 226 229 232 232 236 224 221 225 229 235 234 241 240 240 243 249 252 254 255 257 255 254 261 263 267
222 162 167 187 216 173 231 258 257 197 197 201 198 204 207 214 218 219 217 219 220 224 227 230 229 230 229 233 236 229 223 226 233 235 238 239 241 246 239 243 246 250 255 259 259 261 266 272 275
180 165 176 201 203 145 210 235 234 192 206 212 211 211 216 222 222 220 220 221 220 223 224 227 229 230 228 226 231 239 227 228 232 234 238 242 243 245 250 257 258 255 263 267 267 265 268 275 279
262 189 196 286 168 146 179 242 240 211 220 216 217 220 221 224 220 215 216 219 217 220 222 224 231 235 234 234 240 247 251 236 235 238 240 241 246 250 253 257 263 264 270 272 272 274 273 273 276
204 216 192 193 137 45 159 275 232 236 235 235 227 228 229 223 216 215 213 214 214 214 220 223 232 233 239 241 241 242 240 243 239 239 241 242 245 252 257 260 263 266 274 273 271 278 277 278 281
222 188 191 158 141 203 172 262 254 230 229 212 229 228 232 227 223 216 211 208 208 212 215 218 225 232 235 238 240 243 248 235 238 243 248 248 249 251 257 263 264 269 270 272 276 269 272 280 276
227 156 167 159 168 129 221 170 262 220 239 230 223 224 221 226 221 212 209 209 208 212 216 221 222 224 228 232 235 239 238 242 244 257 260 256 254 252 255 259 262 266 269 268 270 273 275 273 285
152 100 63 65 100 220 196 179 252 200 207 219 198 210 203 190 188 192 193 197 204 211 214 220 226 229 229 233 236 233 233 232 243 251 261 260 246 248 248 249 252 257 267 274 270 269 273 279 286
200 142 132 212 220 217 186 170 237 245 242 218 185 182 180 185 184 187 194 201 212 219 224 230 228 230 229 230 235 236 226 218 233 239 237 244 238 237 235 239 247 255 256 262 264 274 274 274 279
195 176 150 173 182 222 112 231 245 255 264 262 203 176 173 182 187 195 201 206 212 214 214 215 217 220 220 222 226 229 229 218 213 225 224 223 229 238 243 252 253 250 251 249 271 274 273 276 284
187 191 160 100 26 71 206 278 300 197 20 153 160 168 174 182 181 187 186 187 191 190 191 191 190 195 196 202 208 213 217 207 206 206 208 222 225 223 227 230 239 247 263 269 268 275 278 281 281
183 155 107 2 128 226 263 270 230 215 206 178 172 174 177 179 178 180 182 182 182 181 179 179 178 181 178 187 194 198 201 203 209 211 221 216 199 200 199 207 210 236 252 268 279 286 287 289 294
147 182 136 122 154 176 177 250 214 212 192 188 179 182 181 182 182 180 180 181 181 180 175 174 171 174 172 177 183 186 185 187 192 207 194 153 156 158 162 175 191 238 291 303 307 310 313 313 311
306 218 162 190 218 221 168 265 159 207 189 178 185 190 189 187 185 185 185 183 180 178 176 173 169 168 163 160 159 156 152 153 158 158 153 153 157 153 154 161 186 252 288 302 309 312 316 318 321